Location: Schommer Observatory
(40.5200°N, 74.4500°W)
Time: 11:10:25
(UTC-04:00)

Hubble Space Telescope - Visible Passes

Search period start: 20 March 2019 00:00
Search period end: 30 March 2019 00:00
Orbit: 537 x 540 km, 28.5° (Epoch: 19 March)

Date Brightness Start Highest point End Pass type
(mag) Time Alt. Az. Time Alt. Az. Time Alt. Az.
25 Mar 3.1 20:52:43 10° SSW 20:53:49 12° S 20:53:49 12° S visible
26 Mar 2.8 20:41:51 10° SSW 20:44:02 14° S 20:44:06 14° S visible
27 Mar 2.8 20:31:05 10° SSW 20:33:25 15° S 20:34:20 14° SSE visible
28 Mar 2.8 20:20:23 10° SSW 20:22:48 15° S 20:24:32 12° SSE visible
29 Mar 2.9 20:09:45 10° SW 20:12:12 15° S 20:14:39 10° SE visible
